Simultaneous Nadir Overpasses (SNOs) Predictions

Prediction of SNOs between FY3D and NOAA-19 Satellite Orbit:

Table of predicted SNOs for the next 14.0 days since TLE Epoch: 8/30/2024
Index Date (FY3D) Time (FY3D) Lat,Lon (FY3D) SZA (FY3D ) Date (NOAA-19) Time (NOAA-19) Lat,Lon (NOAA-19) SZA (NOAA-19 ) Distance(km) Time Diff (sec)
1 09/04/2024 13:19:54 75.70, -18.18 68.76 09/04/2024 13:18:45 75.70, -20.30 68.75 58.16 69
2 09/04/2024 14:10:45 -76.01, 148.08 110.93 09/04/2024 14:09:41 -75.99, 147.98 110.94 3.21 64
3 09/04/2024 15:01:32 76.04, -44.73 69.12 09/04/2024 15:00:35 76.04, -44.58 69.12 4.24 57
4 09/04/2024 15:52:16 -76.03, 122.62 110.88 09/04/2024 15:51:38 -76.02, 122.59 110.89 1.31 38
5 09/04/2024 16:43:02 76.02, -70.03 69.13 09/04/2024 16:42:33 76.03, -70.13 69.13 2.48 29
6 09/04/2024 17:33:47 -76.05, 97.16 110.83 09/04/2024 17:33:35 -76.05, 97.21 110.83 1.25 12
7 09/04/2024 18:24:33 76.05, -95.50 69.18 09/04/2024 18:24:30 76.05, -95.51 69.19 1.00 3
8 09/04/2024 19:15:18 -76.08, 71.70 110.78 09/04/2024 19:15:32 -76.08, 71.82 110.78 3.16 14
9 09/04/2024 20:06:04 76.07,-120.96 69.23 09/04/2024 20:06:27 76.08,-120.90 69.24 2.00 23
10 09/04/2024 20:56:48 -76.06, 46.40 110.77 09/04/2024 20:57:30 -76.06, 46.27 110.77 3.48 42
11 09/04/2024 21:47:35 76.09,-146.42 69.28 09/04/2024 21:48:25 76.06,-146.45 69.25 3.39 50
12 09/04/2024 22:38:19 -76.08, 20.94 110.72 09/04/2024 22:39:27 -76.09, 20.89 110.71 1.75 68
13 09/04/2024 23:29:08 76.21,-172.21 69.42 09/04/2024 23:30:21 76.14,-171.67 69.35 16.26 73



Historial Predications of SNOs between FY3D and NOAA-19
